Regional Weather Roundup
Issued by NWS

Home | Current Version | Previous Version | Graphics & Text | Print | Product List | Glossary Off
Versions: 1 2 3 4 5 6 7 8 9 10 11 12 13 14 15 16 17 18 19 20 21 22 23 24 25 26 27 28 29 30 31 32 33 34 35 36 37 38 39 40 41 42 43 44 45 46 47 48 49 50

000
ASUS43 KTOP 060959
RWRKS

WEATHER ROUNDUP FOR KANSAS
NATIONAL WEATHER SERVICE GOODLAND KS
400 AM CST FRI MAR 06 2015

NOTE:  "FAIR" INDICATES FEW OR NO CLOUDS BELOW 12,000 FEET WITH NO
SIGNIFICANT WEATHER AND/OR OBSTRUCTIONS TO VISIBILITY.

KSZ001>006-013>018-027>032-041>047-061100-
NORTHWEST KANSAS

CITY           SKY/WX    TMP DP  RH WIND       PRES   REMARKS
GOODLAND       CLEAR     25  21  85 W7        30.25F
HAYS           CLEAR     27  10  50 CALM      30.27S
HILL CITY      CLEAR     27  16  63 W7        30.25F
RUSSELL        CLEAR     25  16  68 SW9       30.26F
$$

KSZ061>065-074>080-084>089-061100-
SOUTHWEST KANSAS

CITY           SKY/WX    TMP DP  RH WIND       PRES   REMARKS
DODGE CITY     CLEAR     30  17  58 SW12      30.29F WCI  20
ELKHART          N/A     30  20  66 W10         N/A  WCI  21
GARDEN CITY    CLEAR     24  19  81 SW7       30.27F
GREAT BEND     CLEAR     27  18  69 SW8       30.29F
LIBERAL        CLEAR     27  19  74 S8        30.31F
$$

KSZ066>073-081>083-090>101-061100-
SOUTHEAST KANSAS

CITY           SKY/WX    TMP DP  RH WIND       PRES   REMARKS
CHANUTE        CLEAR     25  19  78 S10       30.42F WCI  15
COFFEYVILLE    CLEAR     25  19  78 S9        30.46F
HUTCHINSON     CLEAR     27  20  75 S10       30.33F WCI  17
MEDICINE LODGE   N/A     25  21  85 S6        30.35F
NEWTON         CLEAR     28  18  64 SW14      30.35S WCI  17
PARSONS        CLEAR     24  19  81 S6        30.45F
WICHITA INTL   CLEAR     28  19  69 S10       30.36F WCI  19
WICHITA JABRA  CLEAR     30  18  60 SW17      30.36F WCI  18
WICHITA MCCONL CLEAR     29  18  63 S15       30.36F WCI  18
WINFIELD       CLEAR     29  19  66 S14       30.41F WCI  18
$$

KSZ007>012-019>026-033>040-048>060-102>105-061100-
NORTHEAST KANSAS

CITY           SKY/WX    TMP DP  RH WIND       PRES   REMARKS
CONCORDIA      CLEAR     30  18  60 SW17      30.24F WCI  18
EMPORIA        CLEAR     27  19  72 S14       30.33F WCI  16
LAWRENCE       CLEAR     24  16  71 S9        30.35F
MANHATTAN      CLEAR     30  21  69 SW9       30.30F
OLATHE IND     CLEAR     24  16  71 S13       30.36F WCI  12
OLATHE EXE     CLEAR     25  17  72 S10       30.34F WCI  15
SALINA         CLEAR     30  21  69 S10       30.30F WCI  21
TOPEKA BILLARD CLEAR     29  18  63 S9G17     30.32F
TOPEKA FORBES  CLEAR     28  18  66 S16       30.31F WCI  16
$$


USA.gov is the U.S. government's official web portal to all federal, state and local government web resources and services.